Latest Weather Observations for Wynyard

IDT60801

Issued at 3:35 pm EDT Sunday 26 October 2014 (issued every 30 minutes, with the page automatically refreshed every 10 minutes)

About weather observations | Map of weather stations | Latest weather observations for TAS | Other Formats
Station Details ID: 091107 Name: WYNYARD AIRPORT Lat: -41.00 Lon: 145.73 Height: 12.0 m
Data from the previous 72 hours. | See also: Recent months at Wynyard
Date/Time
EDT
Temp
°C
App
Temp
°C
Dew
Point
Rel
Hum
%
Delta-T
°C
Wind Press
QNH
hPa
Press
MSL
hPa
Rain
since 9 am
mm
Dir
 
Spd
km/h
Gust
km/h
Spd
kts
Gust
kts
26/03:30pm 15.0 12.3 11.8 81 1.7 NNE 17 20 9 11 1011.3 1011.4 0.4
26/03:00pm 16.1 13.5 11.9 76 2.3 NE 17 24 9 13 1011.5 1011.6 0.4
26/02:30pm 15.7 13.7 11.5 76 2.3 NE 13 19 7 10 1011.8 1011.9 0.4
26/02:00pm 15.4 13.5 11.8 79 1.9 NE 13 20 7 11 1012.1 1012.2 0.4
26/01:30pm 15.7 13.7 11.5 76 2.3 NE 13 20 7 11 1011.9 1012.0 0.4
26/01:00pm 16.0 13.5 12.2 78 2.1 NE 17 20 9 11 1012.3 1012.4 0.4
26/12:30pm 15.5 13.5 11.5 77 2.2 NE 13 17 7 9 1012.6 1012.7 0.4
26/12:00pm 15.3 13.6 11.3 77 2.1 NE 11 17 6 9 1012.9 1013.0 0.4
26/11:30am 15.8 15.1 13.1 84 1.5 NE 9 15 5 8 1012.9 1013.0 0.4
26/11:19am 15.3 14.5 13.0 86 1.3 NNE 9 15 5 8 1013.0 1013.1 0.4
26/11:00am 14.5 13.3 11.6 83 1.6 NNE 9 13 5 7 1013.2 1013.3 0.4
26/10:54am 14.7 14.0 13.1 90 0.9 NNE 9 13 5 7 1013.2 1013.3 0.4
26/10:52am 14.6 13.8 13.0 90 0.9 NNE 9 13 5 7 1013.2 1013.3 0.4
26/10:30am 14.4 13.4 13.4 94 0.6 N 11 15 6 8 1013.2 1013.3 0.4
26/10:00am 14.0 13.5 13.8 99 0.1 NE 9 11 5 6 1013.2 1013.3 0.4
26/09:30am 12.9 12.4 12.7 99 0.1 NE 7 9 4 5 1013.1 1013.2 0.4
26/09:00am 12.9 13.4 12.7 99 0.1 SSE 2 7 1 4 1013.0 1013.1 1.2
26/08:40am 12.6 13.4 12.4 99 0.1 CALM 0 6 0 3 1013.2 1013.3 1.2
26/08:30am 12.6 12.3 12.6 100 0.0 SSE 6 7 3 4 1013.3 1013.4 1.2
26/08:26am 12.6 12.3 12.6 100 0.0 S 6 7 3 4 1013.3 1013.4 1.2
26/08:21am 12.6 12.7 12.6 100 0.0 SSE 4 9 2 5 1013.4 1013.5 1.2
26/08:07am 12.5 12.1 12.3 99 0.1 NE 6 9 3 5 1013.2 1013.3 1.0
26/08:03am 12.7 12.4 12.7 100 0.0 NNE 6 9 3 5 1013.3 1013.4 0.8
26/08:00am 12.6 12.6 12.4 99 0.1 NNE 4 9 2 5 1013.2 1013.3 0.8
26/07:30am 12.6 12.0 12.4 99 0.1 N 7 11 4 6 1013.0 1013.1 0.4
26/07:12am 12.9 12.4 12.7 99 0.1 ENE 7 11 4 6 1012.9 1013.0 0.4
26/07:00am 13.0 12.7 12.8 99 0.1 E 6 9 3 5 1012.7 1012.8 0.4
26/06:46am 12.9 11.9 12.3 96 0.3 ENE 9 13 5 7 1012.6 1012.7 0.4
26/06:30am 13.1 12.3 12.9 99 0.1 ENE 9 13 5 7 1012.5 1012.6 0.4
26/06:00am 12.8 12.9 12.6 99 0.1 E 4 7 2 4 1012.4 1012.5 0.4
26/05:30am 12.8 11.9 12.6 99 0.1 ESE 9 11 5 6 1012.4 1012.5 0.4
26/05:00am 12.5 11.9 12.3 99 0.1 ESE 7 9 4 5 1012.5 1012.6 0.4
26/04:30am 12.4 11.9 12.2 99 0.1 SE 6 7 3 4 1012.8 1012.9 0.4
26/04:00am 13.0 12.7 12.8 99 0.1 E 6 7 3 4 1013.0 1013.1 0.4
26/03:55am 13.0 12.7 12.8 99 0.1 ENE 6 7 3 4 1013.1 1013.2 0.4
26/03:30am 13.0 13.9 12.8 99 0.1 CALM 0 7 0 4 1013.3 1013.4 0.4
26/03:00am 13.1 12.7 12.9 99 0.1 E 7 11 4 6 1013.5 1013.6 0.4
26/02:30am 13.3 12.2 13.1 99 0.1 ENE 11 19 6 10 1013.5 1013.6 0.4
26/02:00am 13.3 12.2 13.1 99 0.1 ENE 11 17 6 9 1013.8 1013.9 0.4
26/01:30am 13.2 12.1 13.0 99 0.1 ENE 11 17 6 9 1014.1 1014.2 0.4
26/01:19am 12.8 12.3 12.6 99 0.1 ESE 7 11 4 6 1015.0 1015.1 0.4
26/01:00am 12.7 12.3 12.5 99 0.1 E 6 9 3 5 1015.4 1015.5 0.4
26/12:30am 12.8 11.9 12.6 99 0.1 SE 9 11 5 6 1015.5 1015.6 0.4
26/12:00am 13.2 12.4 13.0 99 0.1 E 9 15 5 8 1015.6 1015.7 0.4
 
Date/Time
EDT
Temp
°C
App
Temp
°C
Dew
Point
Rel
Hum
%
Delta-T
°C
Wind Press
QNH
hPa
Press
MSL
hPa
Rain
since 9 am
mm
Dir
 
Spd
km/h
Gust
km/h
Spd
kts
Gust
kts
25/11:30pm 13.4 12.3 13.2 99 0.1 E 11 15 6 8 1015.9 1016.0 0.4
25/11:00pm 13.5 12.1 13.3 99 0.1 E 13 19 7 10 1015.9 1016.0 0.4
25/10:30pm 13.6 11.8 13.4 99 0.1 ESE 15 19 8 10 1016.1 1016.2 0.4
25/10:19pm 13.6 11.8 13.4 99 0.1 E 15 20 8 11 1016.0 1016.1 0.4
25/10:00pm 13.3 11.0 13.1 99 0.1 E 17 22 9 12 1015.8 1015.9 0.4
25/09:43pm 13.4 11.2 13.2 99 0.1 E 17 24 9 13 1015.8 1015.9 0.4
25/09:30pm 13.5 10.9 13.3 99 0.1 E 19 24 10 13 1015.9 1016.0 0.4
25/09:00pm 13.3 10.5 13.1 99 0.1 E 20 26 11 14 1015.8 1015.9 0.4
25/08:30pm 13.4 11.2 13.2 99 0.1 E 17 22 9 12 1015.8 1015.9 0.4
25/08:00pm 13.6 11.7 13.1 97 0.3 E 15 24 8 13 1015.3 1015.4 0.4
25/07:30pm 14.1 11.8 13.0 93 0.6 E 17 22 9 12 1015.2 1015.3 0.4
25/07:00pm 15.0 12.8 13.2 89 1.0 E 17 28 9 15 1014.7 1014.8 0.4
25/06:30pm 15.3 13.1 13.3 88 1.1 E 17 22 9 12 1014.2 1014.3 0.4
25/06:00pm 17.8 16.2 12.7 72 2.8 E 13 17 7 9 1013.7 1013.8 0.4
25/05:30pm 17.6 16.5 12.1 70 3.0 E 9 15 5 8 1013.5 1013.6 0.4
25/05:00pm 18.1 15.3 11.4 65 3.7 E 17 24 9 13 1013.5 1013.6 0.4
25/04:30pm 19.5 18.0 11.8 61 4.3 ENE 11 19 6 10 1013.5 1013.6 0.4
25/04:00pm 20.2 18.4 12.2 60 4.5 NE 13 19 7 10 1013.5 1013.6 0.4
25/03:30pm 20.2 19.3 12.7 62 4.2 NNE 9 13 5 7 1013.6 1013.7 0.4
25/03:00pm 20.2 19.1 11.9 59 4.6 N 9 13 5 7 1013.9 1014.0 0.4
25/02:30pm 18.8 16.5 10.4 58 4.5 N 13 17 7 9 1014.1 1014.2 0.4
25/02:00pm 18.9 16.5 10.2 57 4.7 NNE 13 17 7 9 1013.9 1014.0 0.4
25/01:30pm 18.8 16.5 11.6 63 4.0 NE 15 19 8 10 1014.0 1014.1 0.4
25/01:00pm 19.4 16.9 11.2 59 4.5 ENE 15 20 8 11 1014.1 1014.2 0.4
25/12:30pm 20.7 17.8 12.4 59 4.7 ENE 19 22 10 12 1014.1 1014.2 0.4
25/12:00pm 20.9 20.4 13.8 64 4.1 S 9 19 5 10 1014.6 1014.7 0.2
25/11:30am 20.4 17.8 11.9 58 4.7 SSW 17 22 9 12 1014.8 1014.9 0.2
25/11:00am 19.2 16.5 11.7 62 4.1 SSW 17 22 9 12 1014.8 1014.9 0.2
25/10:30am 18.0 14.3 11.6 66 3.5 SW 22 28 12 15 1014.9 1015.0 0.2
25/10:00am 17.9 14.9 12.4 70 3.0 SW 20 28 11 15 1015.3 1015.4 0.2
25/09:30am 16.9 13.5 11.2 69 3.1 SW 20 30 11 16 1015.2 1015.3 0.0
25/09:00am 15.8 12.6 11.4 75 2.4 WSW 19 30 10 16 1015.1 1015.2 0.4
25/08:30am 15.4 12.4 11.8 79 1.9 W 19 24 10 13 1014.8 1014.9 0.4
25/08:00am 14.5 12.5 12.7 89 1.0 W 15 20 8 11 1014.6 1014.7 0.4
25/07:30am 13.1 12.3 12.9 99 0.1 WSW 9 15 5 8 1014.2 1014.3 0.4
25/07:00am 11.5 10.2 11.3 99 0.1 WSW 9 13 5 7 1014.2 1014.3 0.4
25/06:30am 10.9 8.6 10.6 98 0.2 W 13 15 7 8 1013.7 1013.8 0.4
25/06:00am 11.7 10.1 11.5 99 0.1 WNW 11 15 6 8 1013.3 1013.4 0.4
25/05:30am 10.6 8.3 10.4 99 0.1 W 13 19 7 10 1012.6 1012.7 0.4
25/05:00am 11.4 8.9 11.2 99 0.1 W 15 19 8 10 1012.4 1012.5 0.4
25/04:30am 12.6 10.9 12.4 99 0.1 NW 13 17 7 9 1012.1 1012.2 0.4
25/04:00am 11.1 9.7 10.9 99 0.1 W 9 11 5 6 1011.9 1012.0 0.4
25/03:30am 11.6 10.9 11.4 99 0.1 W 6 11 3 6 1011.8 1011.9 0.4
25/03:00am 13.0 11.0 12.8 99 0.1 WNW 15 20 8 11 1011.5 1011.6 0.4
25/02:30am 13.0 10.6 12.8 99 0.1 WNW 17 20 9 11 1011.6 1011.7 0.4
25/02:00am 13.4 11.6 13.2 99 0.1 WNW 15 17 8 9 1011.6 1011.7 0.4
25/01:30am 13.9 11.7 13.3 96 0.3 WNW 17 22 9 12 1011.7 1011.8 0.4
25/01:00am 13.9 12.6 13.7 99 0.1 WNW 13 19 7 10 1011.9 1012.0 0.4
25/12:30am 14.0 12.4 13.8 99 0.1 WNW 15 19 8 10 1011.8 1011.9 0.4
25/12:00am 13.7 11.6 13.5 99 0.1 WNW 17 20 9 11 1011.2 1011.3 0.4
 
Date/Time
EDT
Temp
°C
App
Temp
°C
Dew
Point
Rel
Hum
%
Delta-T
°C
Wind Press
QNH
hPa
Press
MSL
hPa
Rain
since 9 am
mm
Dir
 
Spd
km/h
Gust
km/h
Spd
kts
Gust
kts
24/11:30pm 13.5 10.8 13.5 100 0.0 W 20 26 11 14 1011.2 1011.3 0.4
24/11:14pm 13.3 10.7 13.3 100 0.0 W 19 24 10 13 1011.3 1011.4 0.4
24/11:03pm 13.3 11.9 13.3 100 0.0 WSW 13 19 7 10 1011.4 1011.5 0.4
24/11:00pm 13.0 11.9 13.0 100 0.0 WSW 11 15 6 8 1011.4 1011.5 0.4
24/10:30pm 11.7 10.9 11.7 100 0.0 WSW 7 11 4 6 1011.1 1011.2 0.4
24/10:18pm 11.7 10.5 11.7 100 0.0 WNW 9 9 5 5 1011.0 1011.1 0.4
24/10:00pm 13.7 13.5 13.7 100 0.0 NW 7 11 4 6 1010.9 1011.0 0.4
24/09:59pm 13.6 13.4 13.6 100 0.0 WNW 7 11 4 6 1010.9 1011.0 0.4
24/09:30pm 14.5 14.6 14.5 100 0.0 WNW 7 9 4 5 1011.0 1011.1 0.4
24/09:00pm 14.5 15.9 14.5 100 0.0 CALM 0 0 0 0 1011.0 1011.1 0.4
24/08:30pm 14.5 15.9 14.5 100 0.0 CALM 0 0 0 0 1010.6 1010.6 0.4
24/08:00pm 14.5 15.9 14.5 100 0.0 CALM 0 0 0 0 1010.6 1010.6 0.4
24/07:30pm 14.5 15.9 14.5 100 0.0 CALM 0 6 0 3 1010.7 1010.7 0.2
24/07:00pm 14.6 14.0 14.6 100 0.0 E 11 17 6 9 1009.9 1009.9 0.2
24/06:30pm 14.7 13.4 14.7 100 0.0 E 15 24 8 13 1009.7 1009.7 0.2
24/06:00pm 14.8 12.7 14.8 100 0.0 E 19 28 10 15 1009.6 1009.6 0.2
24/05:30pm 14.8 12.6 14.8 100 0.0 E 20 28 11 15 1009.9 1009.9 0.2
24/05:00pm 14.8 12.6 14.8 100 0.0 E 20 30 11 16 1010.2 1010.2 0.2
24/04:30pm 14.7 12.4 14.7 100 0.0 E 20 32 11 17 1010.4 1010.4 0.2
24/04:00pm 14.7 11.7 14.7 100 0.0 E 24 37 13 20 1010.4 1010.4 0.2
24/03:30pm 14.7 12.0 14.7 100 0.0 E 22 32 12 17 1011.2 1011.3 0.2
24/03:00pm 14.6 10.8 14.6 100 0.0 ESE 28 39 15 21 1011.4 1011.5 0.0
24/02:30pm 14.6 10.8 14.6 100 0.0 ESE 28 39 15 21 1011.9 1012.0 0.0
24/02:03pm 14.6 10.4 14.6 100 0.0 E 30 43 16 23 1012.2 1012.3 0.0
24/02:00pm 14.6 10.0 14.6 100 0.0 ESE 32 43 17 23 1012.2 1012.3 0.0
24/01:30pm 14.4 10.1 14.4 100 0.0 E 30 39 16 21 1012.4 1012.5 0.0
24/01:28pm 14.3 10.0 14.3 100 0.0 E 30 39 16 21 1012.4 1012.5 0.0
24/01:00pm 14.2 9.4 14.0 99 0.1 ESE 32 48 17 26 1012.8 1012.9 0.0
24/12:30pm 13.9 9.0 13.7 99 0.1 ESE 32 44 17 24 1013.3 1013.4 0.0
24/12:00pm 13.5 8.5 13.3 99 0.1 ESE 32 46 17 25 1014.0 1014.1 0.0
24/11:30am 13.2 7.5 13.0 99 0.1 ESE 35 46 19 25 1014.7 1014.8 0.0
24/11:00am 12.7 7.8 12.5 99 0.1 ESE 30 39 16 21 1015.3 1015.4 0.0
24/10:30am 12.4 8.5 12.2 99 0.1 ESE 24 35 13 19 1015.5 1015.6 0.0
24/10:00am 11.8 7.0 11.6 99 0.1 ESE 28 37 15 20 1015.9 1016.0 0.0
24/09:30am 11.4 6.8 11.2 99 0.1 ESE 26 41 14 22 1016.5 1016.6 0.0
24/09:00am 11.1 6.1 10.9 99 0.1 ESE 28 37 15 20 1016.8 1016.9 0.0
24/08:38am 10.9 5.7 10.4 97 0.3 ESE 28 43 15 23 1017.3 1017.3 0.0
24/08:30am 11.0 5.0 10.2 95 0.4 E 32 44 17 24 1017.2 1017.2 0.0
24/08:06am 11.2 5.1 9.8 91 0.7 E 32 43 17 23 1017.5 1017.5 0.0
24/08:00am 11.3 5.0 9.6 89 0.9 E 33 43 18 23 1017.6 1017.6 0.0
24/07:30am 11.8 5.3 8.8 82 1.5 E 33 50 18 27 1017.6 1017.6 0.0
24/07:00am 12.0 5.0 8.5 79 1.7 E 35 50 19 27 1017.9 1017.9 0.0
24/06:30am 12.3 5.1 7.8 74 2.2 E 35 57 19 31 1018.1 1018.1 0.0
24/06:17am 12.3 5.4 7.4 72 2.4 E 33 52 18 28 1018.2 1018.2 0.0
24/06:00am 12.4 5.1 7.1 70 2.5 E 35 46 19 25 1018.3 1018.3 0.0
24/05:32am 12.3 5.5 7.0 70 2.5 E 32 50 17 27 1018.6 1018.6 0.0
24/05:30am 12.3 5.5 7.0 70 2.5 E 32 46 17 25 1018.6 1018.6 0.0
24/05:07am 12.2 5.2 6.7 69 2.6 E 33 52 18 28 1018.7 1018.7 0.0
24/05:00am 12.3 4.5 6.6 68 2.7 E 37 50 20 27 1018.6 1018.6 0.0
24/04:30am 12.2 4.4 6.5 68 2.7 E 37 50 20 27 1018.6 1018.6 0.0
24/04:00am 11.9 4.8 6.4 69 2.6 E 33 56 18 30 1019.1 1019.1 0.0
24/03:54am 12.0 5.1 6.5 69 2.6 E 32 52 17 28 1019.1 1019.1 0.0
24/03:30am 12.0 4.6 6.7 70 2.5 E 35 50 19 27 1019.8 1019.8 0.0
24/03:20am 12.0 4.6 6.9 71 2.4 E 35 54 19 29 1019.8 1019.8 0.0
24/03:00am 12.0 4.7 7.1 72 2.3 E 35 48 19 26 1020.2 1020.2 0.0
24/02:30am 12.1 5.4 7.4 73 2.3 E 32 48 17 26 1020.7 1020.7 0.0
24/02:06am 12.3 5.6 7.4 72 2.4 E 32 56 17 30 1020.9 1020.9 0.0
24/02:00am 12.3 5.7 7.6 73 2.3 E 32 46 17 25 1021.0 1021.0 0.0
24/01:37am 12.5 5.7 7.8 73 2.3 E 33 52 18 28 1021.5 1021.5 0.0
24/01:30am 12.4 5.2 7.5 72 2.4 E 35 50 19 27 1021.6 1021.6 0.0
24/01:00am 12.4 5.9 8.3 76 2.0 E 32 59 17 32 1022.0 1022.0 0.0
24/12:32am 12.5 6.5 8.6 77 1.9 E 30 52 16 28 1022.4 1022.4 0.0
24/12:30am 12.5 6.5 8.8 78 1.8 E 30 44 16 24 1022.5 1022.5 0.0
24/12:00am 12.2 5.8 8.5 78 1.8 ENE 32 50 17 27 1022.7 1022.7 0.0
 
Date/Time
EDT
Temp
°C
App
Temp
°C
Dew
Point
Rel
Hum
%
Delta-T
°C
Wind Press
QNH
hPa
Press
MSL
hPa
Rain
since 9 am
mm
Dir
 
Spd
km/h
Gust
km/h
Spd
kts
Gust
kts
23/11:31pm 12.2 5.9 8.9 80 1.6 ENE 32 52 17 28 1023.0 1023.0 0.0
23/11:30pm 12.3 6.0 9.1 81 1.6 ENE 32 48 17 26 1023.0 1023.0 0.0
23/11:00pm 12.4 5.6 9.2 81 1.6 ENE 35 54 19 29 1023.2 1023.2 0.0
23/10:46pm 12.5 7.0 9.1 80 1.7 ENE 28 46 15 25 1023.3 1023.3 0.0
23/10:30pm 12.4 8.1 9.2 81 1.6 ENE 22 37 12 20 1023.4 1023.4 0.0
23/10:00pm 12.7 8.8 9.5 81 1.6 E 20 32 11 17 1023.6 1023.6 0.0
23/09:30pm 12.9 9.1 9.7 81 1.6 ENE 20 35 11 19 1023.4 1023.4 0.0
23/09:00pm 12.6 9.4 10.1 85 1.3 E 17 22 9 12 1023.1 1023.1 0.0
23/08:30pm 12.7 9.5 10.1 84 1.3 ENE 17 26 9 14 1022.9 1022.9 0.0
23/08:00pm 12.7 10.8 10.4 86 1.2 E 11 15 6 8 1022.9 1022.9 0.0
23/07:30pm 13.0 10.6 10.2 83 1.4 E 13 20 7 11 1022.7 1022.7 0.0
23/07:00pm 13.9 11.6 10.3 79 1.9 ENE 13 20 7 11 1022.5 1022.5 0.0
23/06:30pm 14.5 12.2 10.3 76 2.2 E 13 17 7 9 1022.4 1022.4 0.0
23/06:00pm 14.8 12.4 10.0 73 2.5 E 13 19 7 10 1022.4 1022.4 0.0
23/05:30pm 15.1 12.9 10.7 75 2.3 E 13 22 7 12 1022.5 1022.5 0.0
23/05:00pm 15.1 12.1 10.5 74 2.4 ENE 17 20 9 11 1022.5 1022.5 0.0
23/04:30pm 15.7 12.5 11.3 75 2.4 NE 19 24 10 13 1022.4 1022.4 0.0
23/04:00pm 15.7 12.5 11.1 74 2.4 NE 19 24 10 13 1022.5 1022.5 0.0

Other Formats:

Comma delimited format used in spreadsheet applications
http://www.bom.gov.au/fwo/IDT60801/IDT60801.95957.axf

JavaScript Object Notation format (JSON) in row-major order
http://www.bom.gov.au/fwo/IDT60801/IDT60801.95957.json